Weather History for KPIA - September, 2014

Change the Weather History Date:

Thursday, September 11, 2014

  Actual Average Record
Temperature  
Mean Temperature 56 °F 68 °F  
Max Temperature 60 °F 79 °F 98 °F (1933)
Min Temperature 51 °F 57 °F 35 °F (1917)
Degree Days  
Heating Degree Days 9 1  
Month to date heating degree days 9 10  
Since 1 July heating degree days 11 16  
Cooling Degree Days 0 5  
Month to date cooling degree days 76 65  
Year to date cooling degree days 1100 972  
Growing Degree Days 5 (Base 50)    
Moisture  
Dew Point 47 °F    
Average Humidity 71    
Maximum Humidity 80    
Minimum Humidity 62    
Precipitation  
Precipitation 0.00 in 0.11 in 1.10 in (1944)
Month to date precipitation 4.66 1.22  
Year to date precipitation 34.74 26.17  
Snow  
Snow 0.00 in 0.00 in 0.00 in ()
Month to date snowfall 0.0 0.0  
Since 1 July snowfall 0.0 0.0  
Since 1 September snowfall 0.0 0.0  
Snow Depth 0.00 in    
Sea Level Pressure  
Sea Level Pressure 30.12 in    
Wind  
Wind Speed 7 mph (NNE)    
Max Wind Speed 17 mph    
Max Gust Speed 22 mph    
Visibility 10 miles    
Events      
T = Trace of Precipitation, MM = Missing Value Source: NWS Daily Summary

Daily Weather History Graph

Daily Weather History Graph

Search for Another Location

Airport or City:

Trip Planner

Search our weather history database for the weather conditions in past years. The results will help you decide how hot, cold, wet, or windy it might be!

Date:

Astronomy

Sep. 11, 2014 Rise Set
Actual Time 6:35 AM CDT 7:14 PM CDT
Civil Twilight 6:07 AM CDT 7:41 PM CDT
Nautical Twilight 5:35 AM CDT 8:14 PM CDT
Astronomical Twilight 5:01 AM CDT 8:47 PM CDT
Moon 8:51 PM CDT (9/11) 9:33 AM CDT (9/11)
Length of Visible Light 13h 34m
Length of Day
12h 38m
Waning Gibbous, 90% of the Moon is Illuminated
Sep 11
Waning Gibbous
Sep 15
Last Quarter
Sep 24
New
Oct 1
First Quarter
Oct 8
Full

Hourly Weather History & Observations

Time (CDT) Temp. Dew Point Humidity Pressure Visibility Wind Dir Wind Speed Gust Speed Precip Events Conditions
12:16 AM 61.0 °F 54.0 °F 78% 29.92 in 10.0 mi NNW 9.2 mph - N/A   Overcast
12:54 AM 60.1 °F 53.1 °F 78% 29.93 in 10.0 mi Variable 6.9 mph 16.1 mph N/A   Overcast
1:06 AM 60.1 °F 52.0 °F 75% 29.94 in 10.0 mi NNW 10.4 mph 17.3 mph N/A   Overcast
1:44 AM 59.0 °F 52.0 °F 78% 29.96 in 10.0 mi NNW 9.2 mph 19.6 mph N/A   Overcast
1:54 AM 59.0 °F 52.0 °F 78% 29.96 in 10.0 mi NNW 11.5 mph 17.3 mph N/A   Overcast
2:54 AM 57.9 °F 52.0 °F 81% 29.97 in 10.0 mi NNW 6.9 mph - N/A   Overcast
3:35 AM 57.0 °F 50.0 °F 77% 29.99 in 10.0 mi North 8.1 mph - N/A   Overcast
3:54 AM 57.0 °F 48.9 °F 74% 29.99 in 10.0 mi North 5.8 mph - N/A   Overcast
4:49 AM 55.4 °F 48.2 °F 77% 30.01 in 10.0 mi North 8.1 mph - N/A   Overcast
4:54 AM 55.9 °F 48.9 °F 77% 30.01 in 10.0 mi North 8.1 mph - N/A   Overcast
5:54 AM 55.9 °F 48.0 °F 75% 30.05 in 10.0 mi NNE 6.9 mph - N/A   Overcast
6:35 AM 55.0 °F 48.0 °F 77% 30.08 in 10.0 mi Variable 5.8 mph - N/A   Overcast
6:47 AM 55.0 °F 46.9 °F 74% 30.08 in 10.0 mi NNE 6.9 mph - N/A   Overcast
6:54 AM 54.0 °F 46.9 °F 77% 30.08 in 10.0 mi Variable 6.9 mph - N/A   Overcast
7:54 AM 53.1 °F 46.0 °F 77% 30.10 in 10.0 mi North 6.9 mph - N/A   Overcast
8:54 AM 53.1 °F 46.0 °F 77% 30.13 in 10.0 mi NNE 8.1 mph - N/A   Overcast
9:54 AM 53.1 °F 46.0 °F 77% 30.16 in 10.0 mi NNE 8.1 mph - N/A   Overcast
10:54 AM 53.1 °F 46.0 °F 77% 30.18 in 10.0 mi North 9.2 mph - N/A   Overcast
11:54 AM 54.0 °F 45.0 °F 72% 30.19 in 10.0 mi NNE 8.1 mph - N/A   Overcast
12:11 PM 54.0 °F 45.0 °F 72% 30.19 in 10.0 mi Variable 6.9 mph - N/A   Overcast
12:54 PM 54.0 °F 45.0 °F 72% 30.19 in 10.0 mi North 8.1 mph - N/A   Overcast
1:54 PM 55.9 °F 46.0 °F 69% 30.20 in 10.0 mi Variable 5.8 mph - N/A   Overcast
2:54 PM 57.0 °F 46.0 °F 67% 30.19 in 10.0 mi NNE 9.2 mph - N/A   Overcast
3:54 PM 57.0 °F 45.0 °F 64% 30.19 in 10.0 mi North 4.6 mph - N/A   Overcast
4:54 PM 55.9 °F 45.0 °F 67% 30.19 in 10.0 mi North 5.8 mph - N/A   Overcast
5:54 PM 55.0 °F 45.0 °F 69% 30.22 in 10.0 mi North 6.9 mph - N/A   Overcast
6:54 PM 54.0 °F 45.0 °F 72% 30.23 in 10.0 mi NNE 5.8 mph - N/A   Overcast
7:54 PM 54.0 °F 45.0 °F 72% 30.24 in 10.0 mi NNE 5.8 mph - N/A   Overcast
8:54 PM 54.0 °F 45.0 °F 72% 30.27 in 10.0 mi NNE 5.8 mph - N/A   Overcast
9:54 PM 53.1 °F 44.1 °F 71% 30.28 in 10.0 mi NE 5.8 mph - N/A   Overcast
10:54 PM 53.1 °F 45.0 °F 74% 30.30 in 10.0 mi NE 8.1 mph - N/A   Overcast
11:54 PM 53.1 °F 44.1 °F 71% 30.30 in 10.0 mi ENE 12.7 mph - N/A   Overcast